#timestamp,LO_Frequency,Hit,StdDev 
1697151615.5,286047003.4,N
1697151635.3,286047005.8,N
1697151655.2,286047004.6,N
1697151675.9,286047001.5,N
1697151695.7,286047004.3,N
1697151715.6,286046999.9,N
1697151735.4,286047002.7,N
1697151755.2,286047004.2,N
1697151775.1,286047000.5,N
1697151776.0,286047000.5,N
1697151795.8,286046998.8,N
1697151815.7,286046998.4,N
1697151835.5,286046999.8,N
1697151855.3,286047000.6,N
1697151875.2,286046996.6,N
1697151895.0,286046997.3,N
1697151895.9,286046997.3,N
1697151915.7,286046997.1,N
1697151935.6,286046996.3,N
1697151955.4,286046994.0,N
1697151975.3,286046993.5,N
1697151995.1,286046993.7,N
1697151996.0,286046993.7,N
1697152015.8,286046998.6,N
1697152035.7,286046999.3,N
1697152055.5,286046997.4,N
1697152075.3,286046997.3,N
1697152095.2,286046997.8,N
1697152115.0,286046997.2,N
1697152115.9,286046997.2,N
1697152135.8,286046999.3,N
1697152155.6,286046997.8,N
1697152175.4,286046995.5,N
1697152195.3,286046998.6,N
1697152215.1,286047001.0,N
1697152235.9,286046998.8,N
1697152255.7,286046999.7,N
1697152275.5,286046997.0,N
1697152295.4,286046996.8,N
1697152315.2,286046999.6,N
1697152335.0,286047001.7,N
1697152336.0,286047001.7,N
1697152355.8,286047005.5,N
1697152375.6,286047001.3,N
1697152395.5,286047004.3,N
1697152415.3,286046999.9,N
1697152435.1,286047000.0,N
1697152455.9,286047002.4,N
1697152475.7,286047001.9,N
1697152495.6,286046998.6,N
1697152515.4,286046996.7,N
1697152535.2,286046994.3,N
1697152555.1,286046996.3,N
1697152556.0,286046996.3,N
1697152575.8,286046997.2,N
1697152595.6,286046995.3,N
1697152615.5,286046997.9,N
1697152635.3,286046999.8,N
1697152655.2,286046999.1,N
1697152675.9,286046997.3,N
1697152695.7,286046998.5,N
1697152715.6,286046999.2,N
1697152735.4,286046997.6,N
1697152755.2,286046996.6,N
1697152775.1,286047001.2,N
1697152776.0,286047001.2,N
1697152795.8,286046999.7,N
1697152815.7,286047001.2,N
1697152835.5,286047004.3,N
1697152855.3,286046999.4,N
1697152875.2,286047004.5,N
1697152895.0,286047007.4,N
1697152895.9,286047007.4,N
1697152915.7,286047005.7,N
1697152935.6,286047003.9,N
1697152955.4,286047002.6,N
1697152975.3,286046999.9,N
1697152995.1,286047000.8,N
1697153015.8,286047000.0,N
1697153035.7,286047001.6,N
1697153055.5,286047001.5,N
1697153075.4,286047001.6,N
1697153095.2,286047004.2,N
1697153115.0,286047005.6,N
1697153115.9,286047005.6,N
1697153135.8,286047006.0,N
1697153155.6,286047004.7,N
1697153175.4,286047008.6,N
1697153195.3,286047009.1,N
1697153215.1,286047010.8,Y
1697153235.9,286047006.7,P
1697153255.7,286047007.9,P
1697153275.5,286047007.2,P
1697153295.4,286047009.1,Y
1697153315.2,286047000.8,P
1697153335.0,286046996.6,N
1697153336.0,286046996.6,N
1697153355.8,286047000.7,N
1697153375.6,286046999.9,N
1697153395.5,286047000.2,N
1697153415.3,286046998.2,N
1697153435.1,286047001.1,N
1697153455.9,286046998.1,N
1697153475.7,286046998.2,N
1697153495.6,286046998.6,N
1697153515.4,286047001.2,N
1697153535.2,286047000.5,N
1697153555.1,286046999.8,N
1697153556.0,286046999.8,N
1697153575.8,286047000.4,N
1697153595.6,286047001.0,N
1697153615.5,286047002.4,N
1697153635.3,286047002.6,N
1697153655.2,286047000.9,N
1697153675.9,286047000.0,N
1697153695.7,286047001.9,N
1697153715.6,286047000.4,N
1697153735.4,286047001.0,N
1697153755.3,286047000.0,N
1697153775.1,286047000.7,N
1697153776.0,286047000.7,N
1697153795.8,286047000.5,N
1697153815.7,286046999.9,N
1697153835.5,286046999.4,N
1697153855.3,286046998.8,N
1697153875.2,286046997.8,N
1697153895.0,286046995.6,Y
1697153895.9,286046995.6,P
1697153915.8,286046995.8,N
1697153935.6,286046995.0,N
1697153955.4,286046999.2,N
1697153975.3,286047001.2,N
1697153995.1,286046997.4,N
1697154015.9,286046997.1,N
1697154035.7,286046999.6,N
1697154055.5,286046997.4,N
1697154075.4,286046995.4,N
1697154095.2,286046999.1,N
1697154115.0,286046997.2,N
1697154115.9,286046997.2,N
1697154135.8,286046996.7,N
1697154155.6,286046996.7,N
1697154175.5,286046997.8,N
1697154195.3,286046996.9,N
1697154215.1,286046997.7,N
1697154235.9,286046996.7,N
1697154255.7,286046999.1,N
1697154275.5,286046996.8,N
1697154295.4,286046995.0,Y
1697154315.2,286046999.1,P
1697154335.0,286046998.6,N
1697154336.0,286046998.6,N
1697154355.8,286046998.3,Y
1697154375.6,286046998.2,P
1697154395.5,286047001.0,P
1697154415.3,286046998.4,N
1697154435.1,286047000.4,N
1697154455.9,286047004.1,Y
1697154475.7,286047005.7,P
1697154495.6,286047006.0,N
1697154515.4,286047005.9,N
1697154535.2,286047004.1,N
1697154555.1,286047001.3,N
1697154556.0,286047001.3,N
1697154575.8,286047002.3,N
1697154595.6,286047002.4,N
1697154615.5,286047000.4,N
1697154635.3,286047000.1,N
1697154655.2,286047001.1,N
1697154675.9,286046999.1,N
1697154695.7,286046997.1,N
1697154715.6,286046995.2,N
1697154735.4,286046993.3,N
1697154755.2,286046994.6,N
1697154775.1,286046996.0,N
1697154776.0,286046996.0,N
1697154795.8,286046995.4,N
1697154815.7,286046995.5,N
1697154835.5,286046995.3,N
1697154855.3,286046994.9,N
1697154875.2,286046995.5,N
1697154895.0,286046997.0,N
1697154895.9,286046997.0,N
1697154915.8,286046999.3,N
1697154935.6,286047000.6,N
1697154955.4,286047002.7,N
1697154975.3,286047001.9,N
1697154995.1,286047005.6,N
1697155015.8,286047005.2,N
1697155035.7,286047004.7,N
1697155055.5,286047004.8,N
1697155075.3,286047007.4,N
1697155095.2,286047007.6,N
1697155115.0,286047007.5,N
1697155115.9,286047007.5,N
1697155135.8,286047006.0,N
1697155155.6,286047007.4,N
1697155175.4,286047005.3,N
1697155195.3,286047004.8,N
